Le nostre stazioni meteo in Italia

Pubblicità
Il mio iltempo24.it
Cagliari/Elmas, Italia (16560): Temperatura & dewpoint: 17.01.2019 05:00:00 - 23.01.2019 05:00:00 (CET)Cagliari/Elmas, Italia (16560): velocità del vento: 17.01.2019 05:00:00 - 23.01.2019 05:00:00 (CET)Cagliari/Elmas, Italia (16560): direzione del vento: 17.01.2019 05:00:00 - 23.01.2019 05:00:00 (CET)Cagliari/Elmas, Italia (16560): reduced air pressure: 17.01.2019 05:00:00 - 23.01.2019 05:00:00 (CET)Cagliari/Elmas, Italia (16560): visibility: 17.01.2019 05:00:00 - 23.01.2019 05:00:00 (CET)Cagliari/Elmas, Italia (16560): precipitazioni: 17.01.2019 05:00:00 - 23.01.2019 05:00:00 (CET)
Data & Tempo tt [°C] td [°C] ff [km/h] ff [kn] dd ppp [hPa] vv [km] rr [mm]
23.01.2019 05:00:00 4,0 4,0 5 3 SSO - 10 -
23.01.2019 04:00:00 4,4 3,8 9 5 NNO 1003,5 10 0,0
23.01.2019 03:00:00 5,0 4,0 5 3 NO - 10 -
23.01.2019 02:00:00 5,0 4,0 13 7 N - 10 -
23.01.2019 01:00:00 4,8 3,7 4 2 - 1005,9 10 -
23.01.2019 00:00:00 4,0 2,0 9 5 NE - 10 -
22.01.2019 23:00:00 3,0 2,0 - - - - 10 -
22.01.2019 22:00:00 4,6 2,2 9 5 NNO 1006,9 10 0,0
22.01.2019 21:00:00 6,0 1,0 9 5 ONO - 10 -
22.01.2019 20:00:00 5,0 1,0 9 5 N - 10 -
22.01.2019 19:00:00 7,0 1,9 9 5 ONO 1007,4 10 -
22.01.2019 18:00:00 9,0 1,0 22 12 O - 10 -
22.01.2019 17:00:00 10,0 4,0 18 10 NO - 10 -
22.01.2019 16:00:00 10,6 3,9 18 10 NO 1007,7 10 0,0
22.01.2019 15:00:00 11,0 4,0 21 11 NNO - 10 -
22.01.2019 14:00:00 11,0 5,0 26 14 ONO - 8 -
22.01.2019 13:00:00 10,6 5,1 18 10 ONO 1009,5 10 -
22.01.2019 12:00:00 7,0 5,0 35 19 O - 3,0 -
22.01.2019 11:00:00 11,0 6,0 15 8 NNO - 10 -
22.01.2019 10:00:00 9,5 5,7 11 6 NO 1010,8 10 0,0
22.01.2019 09:00:00 7,0 5,0 15 8 NNO - 10 -
22.01.2019 08:00:00 7,0 5,0 18 10 O - 10 -
22.01.2019 07:00:00 7,5 5,1 24 13 NO 1010,0 10 -
22.01.2019 06:00:00 6,0 5,0 15 8 NO - 10 -
22.01.2019 05:00:00 5,0 4,0 8 4 NNO - 10 -
22.01.2019 04:00:00 5,0 3,6 11 6 N 1010,3 10 0,0
22.01.2019 03:00:00 - - - - - - - -
22.01.2019 02:00:00 7,0 4,0 9 5 NO - 10 -
22.01.2019 01:00:00 6,4 4,3 16 9 NO 1010,3 10 -
22.01.2019 00:00:00 8,0 5,0 21 11 ONO - 10 -
21.01.2019 23:00:00 8,0 6,0 24 13 NO - 10 -
21.01.2019 22:00:00 8,3 6,0 22 12 NNO 1008,9 10 0,0
21.01.2019 21:00:00 9,0 6,0 24 13 NNO - 10 -
21.01.2019 20:00:00 8,0 7,0 21 11 NO - 10 -
21.01.2019 19:00:00 8,4 7,4 21 11 NNO 1007,3 8 -
21.01.2019 18:00:00 9,0 8,0 21 11 NO - 3,0 -
21.01.2019 17:00:00 9,0 8,0 28 15 NNO - 9 -
21.01.2019 16:00:00 9,3 8,2 28 15 NNO 1005,4 9 0,0
21.01.2019 15:00:00 11,0 10,0 11 6 ONO - 8 -
21.01.2019 14:00:00 11,0 10,0 9 5 NO - 8 -
21.01.2019 13:00:00 10,5 9,2 13 7 ONO 1006,0 10 -
21.01.2019 12:00:00 11,0 9,0 16 9 E - 10 -
21.01.2019 11:00:00 11,0 8,0 18 10 E - 10 -
21.01.2019 10:00:00 10,3 8,1 24 13 E 1006,6 8 0,0
21.01.2019 09:00:00 10,0 8,0 18 10 E - 7 -
21.01.2019 08:00:00 10,0 9,0 24 13 E - 7 -
21.01.2019 07:00:00 10,5 8,9 21 11 E 1006,8 9 -
21.01.2019 06:00:00 10,0 9,0 16 9 ENE - 5 -
21.01.2019 05:00:00 - - - - - - - -
21.01.2019 04:00:00 10,7 7,6 21 11 E 1007,4 10 0,0
21.01.2019 03:00:00 11,0 6,0 9 5 E - 10 -
21.01.2019 02:00:00 11,0 6,0 15 8 E - 10 -
21.01.2019 01:00:00 11,0 6,5 15 8 ESE 1010,0 10 -
21.01.2019 00:00:00 11,0 6,0 15 8 E - 10 -
20.01.2019 23:00:00 11,0 6,0 16 9 E - 10 -
20.01.2019 22:00:00 10,6 5,8 13 7 E 1010,7 10 0,0
20.01.2019 21:00:00 10,0 6,0 11 6 E - 10 -
20.01.2019 20:00:00 11,0 6,0 13 7 E - 10 -
20.01.2019 19:00:00 10,5 6,6 9 5 E 1011,0 10 -
20.01.2019 18:00:00 11,0 7,0 8 4 SSE - 10 -
20.01.2019 17:00:00 12,0 7,0 9 5 SE - 10 -
20.01.2019 16:00:00 11,8 6,7 9 5 SSE 1010,9 10 0,0
20.01.2019 15:00:00 12,0 4,0 8 4 S - 10 -
20.01.2019 14:00:00 14,0 6,0 9 5 SSO - 10 -
20.01.2019 13:00:00 12,6 5,3 9 5 SSO 1012,2 10 -
20.01.2019 12:00:00 12,0 6,0 8 4 O - 10 -
20.01.2019 11:00:00 9,0 6,0 8 4 NO - 10 -
20.01.2019 10:00:00 7,4 5,3 5 3 N 1013,5 10 0,0
20.01.2019 09:00:00 3,0 3,0 11 6 NNO - 10 -
20.01.2019 08:00:00 2,0 2,0 8 4 NNO - 10 -
20.01.2019 07:00:00 3,0 2,1 11 6 NO 1012,7 10 -
20.01.2019 06:00:00 4,0 3,0 13 7 NNO - 10 -
20.01.2019 05:00:00 - - - - - - - -
20.01.2019 04:00:00 3,8 3,0 9 5 NNO 1012,7 10 0,0
20.01.2019 03:00:00 4,0 3,0 13 7 NNO - 10 -
20.01.2019 02:00:00 4,0 3,0 11 6 NNO - 8 -
20.01.2019 01:00:00 3,9 3,1 8 4 NNO 1013,2 8 -
20.01.2019 00:00:00 6,0 5,0 8 4 NO - 8 -
19.01.2019 23:00:00 8,0 6,0 2 1 - - 10 -
19.01.2019 22:00:00 8,9 6,9 8 4 ESE 1013,4 10 0,0
19.01.2019 21:00:00 10,0 7,0 2 1 - - 10 -
19.01.2019 20:00:00 10,0 7,0 4 2 NNE - 10 -
19.01.2019 19:00:00 10,0 7,0 4 2 - 1013,5 10 -
19.01.2019 18:00:00 11,0 7,0 4 2 - - 10 -
19.01.2019 17:00:00 11,0 5,0 11 6 S - 10 -
19.01.2019 16:00:00 11,9 6,3 5 3 SSE 1013,7 10 0,0
19.01.2019 15:00:00 12,0 5,0 9 5 S - 10 -
19.01.2019 14:00:00 13,0 5,0 8 4 S - 10 -
19.01.2019 13:00:00 11,7 4,2 4 2 - 1014,9 10 -
19.01.2019 12:00:00 10,0 4,0 5 3 NO - 10 -
19.01.2019 11:00:00 8,0 4,0 5 3 ONO - 10 -
19.01.2019 10:00:00 6,7 3,7 8 4 NNO 1016,0 10 0,0
19.01.2019 09:00:00 4,0 3,0 5 3 NO - 10 -
19.01.2019 08:00:00 5,0 3,0 5 3 NO - 10 -
19.01.2019 07:00:00 4,2 2,4 4 2 - 1015,5 10 -
19.01.2019 06:00:00 4,0 2,0 4 2 N - 10 -
19.01.2019 05:00:00 4,0 2,0 8 4 NO - 10 -
19.01.2019 04:00:00 3,6 2,4 9 5 NNO 1015,9 10 0,0
19.01.2019 03:00:00 - - - - - - - -
19.01.2019 02:00:00 5,0 3,0 13 7 NNO - 10 -
19.01.2019 01:00:00 6,0 3,6 11 6 ONO 1016,5 10 -
19.01.2019 00:00:00 6,0 3,0 9 5 NNO - 10 -
18.01.2019 23:00:00 7,0 4,0 5 3 NNO - 10 -
18.01.2019 22:00:00 7,2 3,5 13 7 NO 1016,0 10 0,0
18.01.2019 21:00:00 7,0 4,0 9 5 NNO - 10 -
18.01.2019 20:00:00 9,0 4,0 11 6 ONO - 10 -
18.01.2019 19:00:00 9,6 3,8 18 10 NNO 1015,6 10 -
18.01.2019 18:00:00 10,0 4,0 26 14 NNO - 10 -
18.01.2019 17:00:00 12,0 5,0 22 12 NNO - 10 -
18.01.2019 16:00:00 13,2 5,8 29 16 NNO 1014,3 10 0,0
18.01.2019 15:00:00 15,0 7,0 21 11 NNO - 10 -
18.01.2019 14:00:00 14,0 7,0 22 12 NNO - 10 -
18.01.2019 13:00:00 12,8 8,8 9 5 O 1014,7 10 -
18.01.2019 12:00:00 10,0 9,0 13 7 NNO - 10 -
18.01.2019 11:00:00 8,0 7,0 9 5 NO - 8 -
18.01.2019 10:00:00 6,8 6,1 11 6 NNO 1015,7 8 0,0
18.01.2019 09:00:00 6,0 5,0 9 5 NNO - 7 -
18.01.2019 08:00:00 5,0 4,0 5 3 NNO - 5 -
18.01.2019 07:00:00 6,1 5,5 5 3 ONO 1014,7 9 -
18.01.2019 06:00:00 5,0 5,0 5 3 - - 9 -
18.01.2019 05:00:00 5,0 4,0 15 8 NO - 8 -
18.01.2019 04:00:00 3,7 3,0 4 2 - 1015,1 9 0,0
18.01.2019 03:00:00 4,0 3,0 8 4 NO - 10 -
18.01.2019 02:00:00 4,0 4,0 13 7 NNO - 10 -
18.01.2019 01:00:00 4,6 3,8 11 6 NNO 1016,3 10 -
18.01.2019 00:00:00 8,0 6,0 5 3 ONO - 10 -
17.01.2019 23:00:00 7,0 6,0 11 6 NNO - 10 -
17.01.2019 22:00:00 8,1 6,2 9 5 N 1016,5 10 0,0
17.01.2019 21:00:00 8,0 6,0 11 6 NNO - 10 -
17.01.2019 20:00:00 9,0 7,0 11 6 NNO - 10 -
17.01.2019 19:00:00 10,1 8,2 5 3 ONO 1016,0 10 -
17.01.2019 18:00:00 11,0 9,0 5 3 SSO - 10 -
17.01.2019 17:00:00 - - - - - - - -
17.01.2019 16:00:00 14,4 7,5 9 5 SSO 1015,9 10 0,0
17.01.2019 15:00:00 14,0 8,0 13 7 SSO - 10 -
17.01.2019 14:00:00 15,0 8,0 5 3 NO - 10 -
17.01.2019 13:00:00 14,9 7,1 9 5 NO 1016,7 10 -
17.01.2019 12:00:00 14,0 9,0 13 7 NNO - 10 -
17.01.2019 11:00:00 11,0 8,0 11 6 NNO - 10 -
17.01.2019 10:00:00 7,5 6,9 8 4 NNO 1017,9 8 0,0
17.01.2019 09:00:00 4,0 3,0 11 6 NNO - 6 -
17.01.2019 08:00:00 3,0 2,0 5 3 NNO - 5 -
17.01.2019 07:00:00 3,2 2,7 9 5 NNO 1017,4 7 -
17.01.2019 06:00:00 4,0 4,0 9 5 NNO - 6 -
17.01.2019 05:00:00 - - - - - - - -

tt = Temperatura
td = dewpoint
ff = velocità del vento
dd = direzione del vento
ppp = reduced air pressure
vv = visibility
rr = precipitazioni

Stazioni seguenti

WeatherPro
AMSI
MeteoEarth